Location: Ravensburg
(47.7866°N, 9.6124°E)
Time: 22:07:23
(UTC+02:00)

AO-85 - Pass Details

Date: 11 March 2026
Orbit: 507 x 686 km, 64.8° (Epoch: 11 April)

Event Time Altitude Azimuth Distance (km) Brightness Sun altitude
Rises 06:01:26 0° 218° (SW) 2,719 ? -7.8°
Reaches altitude 10° 06:03:40 10° 219° (SW) 1,803 ? -7.4°
Maximum altitude 06:07:42 83° 306° (NW) 536 ? -6.8°
Drops below altitude 10° 06:11:36 10° 37° (NE) 1,747 ? -6.1°
Sets 06:13:45 0° 38° (NE) 2,627 ? -5.7°
